Terminal Aerodrome Forecast
Issued by NWS Portland, OR

Home | Current Version | Previous Version | Text Only | Print | Product List | Glossary On
Versions: 1 2 3 4 5 6 7 8 9 10 11 12 13 14 15 16 17 18 19 20 21 22 23 24 25 26 27 28 29 30 31 32 33 34 35 36 37 38 39 40 41 42 43 44 45 46 47 48 49 50
000
FTUS46 KPQR 241452 AAA
TAFPDX
TAF AMD
KPDX 241452Z 2415/2512 32004KT P6SM FEW015 OVC025
     FM241900 30004KT P6SM SCT020 OVC035
     FM242200 32007KT P6SM FEW035 BKN045
     FM250400 31007KT P6SM OVC025=

USA.gov is the U.S. government's official web portal to all federal, state and local government web resources and services.